Total_Precipitation_Accumulation
0.00 0.00 0.02 0.02 0.02 0.02 0.02 0.05 0.09 0.15 0.17 0.24 0.37 0.50 0.72 0.88 1.10 1.26 1.29 1.25 1.33 1.55 1.86 2.16 2.53 2.88 3.09 3.25 3.36 3.67 3.88 3.59 3.09 2.66 2.15 1.91 1.82 1.63 1.45 1.32 1.22 1.22 1.15 1.26
0.01 0.02 0.02 0.01 0.01 0.02 0.03 0.06 0.12 0.15 0.15 0.20 0.35 0.64 0.82 0.90 0.92 0.99 1.10 1.06 1.09 1.29 1.39 1.48 1.70 2.03 2.12 2.33 2.65 3.03 3.27 3.11 2.57 2.32 2.09 1.93 1.82 1.69 1.64 1.50 1.40 1.24 1.20 1.24
0.00 0.01 0.01 0.01 0.01 0.02 0.05 0.06 0.07 0.11 0.11 0.20 0.36 0.89 1.00 0.89 0.80 0.69 0.81 0.86 0.83 0.92 1.02 1.02 1.10 1.27 1.57 2.05 2.20 2.26 2.52 2.71 2.45 2.31 2.22 2.10 1.98 1.77 1.80 1.70 1.53 1.22 1.12 1.16
0.01 0.01 0.01 0.01 0.02 0.02 0.04 0.04 0.02 0.03 0.07 0.32 0.44 0.90 1.01 0.89 0.88 0.69 0.65 0.64 0.55 0.53 0.69 0.83 0.85 0.91 1.10 1.43 1.71 1.96 2.21 2.38 2.32 2.19 1.98 1.82 1.63 1.52 1.49 1.51 1.52 1.39 1.28 1.12
0.01 0.01 0.01 0.02 0.02 0.02 0.01 0.01 0.01 0.04 0.11 0.29 0.41 0.74 0.98 0.80 0.95 0.70 0.43 0.32 0.28 0.28 0.38 0.56 0.67 0.76 0.79 0.98 1.37 1.79 2.12 2.36 2.26 1.98 1.80 1.78 1.67 1.62 1.53 1.45 1.60 1.48 1.41 1.22
0.01 0.01 0.01 0.01 0.01 0.01 0.01 0.02 0.08 0.17 0.30 0.63 0.62 0.62 0.90 0.69 0.51 0.36 0.26 0.19 0.20 0.22 0.26 0.36 0.42 0.52 0.66 0.79 1.02 1.30 1.63 1.91 1.95 1.79 1.71 1.74 1.75 1.71 1.59 1.39 1.35 1.25 1.25 1.22
0.06 0.05 0.03 0.02 0.01 0.02 0.02 0.03 0.17 0.38 0.65 0.85 0.50 0.63 0.98 0.56 0.38 0.22 0.18 0.17 0.17 0.16 0.21 0.31 0.37 0.36 0.49 0.57 0.66 0.82 1.12 1.36 1.52 1.59 1.61 1.60 1.71 1.71 1.54 1.38 1.30 1.26 1.11 1.06
0.09 0.15 0.06 0.02 0.01 0.02 0.02 0.02 0.06 0.13 0.26 0.43 0.49 1.10 0.94 0.39 0.24 0.20 0.16 0.17 0.16 0.15 0.16 0.26 0.36 0.36 0.37 0.40 0.52 0.66 0.87 1.06 1.20 1.29 1.41 1.47 1.47 1.37 1.36 1.44 1.34 1.27 1.21 1.15
0.03 0.04 0.03 0.02 0.01 0.02 0.02 0.02 0.03 0.04 0.07 0.26 0.59 0.78 0.50 0.22 0.19 0.21 0.18 0.15 0.15 0.20 0.25 0.28 0.33 0.35 0.29 0.31 0.40 0.47 0.64 0.80 0.90 1.03 1.20 1.24 1.28 1.19 1.20 1.25 1.24 1.19 1.26 1.27
0.02 0.01 0.02 0.02 0.02 0.03 0.03 0.02 0.02 0.02 0.05 0.18 0.43 0.68 0.69 0.40 0.30 0.26 0.22 0.19 0.16 0.24 0.37 0.38 0.31 0.35 0.31 0.29 0.35 0.41 0.50 0.63 0.74 0.87 0.94 0.96 1.15 1.16 1.25 1.23 1.15 1.08 1.06 1.09
0.02 0.01 0.01 0.02 0.02 0.04 0.04 0.03 0.03 0.03 0.04 0.09 0.29 0.45 0.48 0.41 0.35 0.25 0.20 0.22 0.28 0.28 0.40 0.41 0.35 0.32 0.28 0.27 0.29 0.32 0.43 0.55 0.64 0.76 0.83 0.90 0.96 1.02 1.09 1.14 1.14 1.11 1.07 1.05
0.02 0.01 0.01 0.03 0.04 0.03 0.05 0.06 0.06 0.05 0.05 0.06 0.12 0.21 0.23 0.28 0.34 0.27 0.26 0.29 0.29 0.24 0.25 0.32 0.33 0.32 0.24 0.26 0.27 0.28 0.34 0.41 0.50 0.69 0.82 0.85 0.94 1.00 1.02 1.06 1.24 1.24 1.20 1.18
0.02 0.01 0.02 0.06 0.12 0.09 0.06 0.06 0.07 0.07 0.06 0.05 0.10 0.20 0.19 0.21 0.30 0.29 0.30 0.34 0.33 0.26 0.24 0.35 0.42 0.37 0.28 0.27 0.29 0.32 0.38 0.43 0.48 0.60 0.72 0.81 0.89 0.99 1.09 1.21 1.36 1.47 1.43 1.41
0.02 0.01 0.01 0.06 0.14 0.20 0.15 0.08 0.07 0.06 0.05 0.05 0.08 0.14 0.19 0.27 0.31 0.28 0.30 0.35 0.34 0.32 0.24 0.30 0.45 0.43 0.32 0.28 0.32 0.35 0.42 0.48 0.59 0.73 0.82 0.88 1.04 1.19 1.29 1.34 1.47 1.54 1.57 1.60
0.02 0.01 0.01 0.03 0.06 0.11 0.11 0.08 0.07 0.06 0.05 0.05 0.06 0.11 0.20 0.31 0.35 0.33 0.33 0.38 0.39 0.33 0.32 0.42 0.53 0.56 0.49 0.45 0.44 0.46 0.56 0.66 0.83 1.02 1.06 1.07 1.17 1.31 1.48 1.68 1.75 1.78 1.81 1.81
0.04 0.03 0.04 0.04 0.06 0.08 0.07 0.06 0.06 0.06 0.05 0.05 0.08 0.12 0.18 0.27 0.30 0.26 0.27 0.30 0.34 0.38 0.39 0.44 0.59 0.67 0.69 0.67 0.66 0.72 0.82 0.97 1.19 1.44 1.53 1.61 1.69 1.78 1.89 1.96 1.99 2.07 2.10 2.07
0.13 0.13 0.11 0.09 0.09 0.10 0.08 0.07 0.07 0.07 0.07 0.07 0.12 0.17 0.22 0.29 0.31 0.37 0.37 0.36 0.46 0.52 0.55 0.55 0.67 0.75 0.83 0.82 0.80 0.90 1.00 1.20 1.39 1.52 1.59 1.72 1.83 1.92 1.98 2.05 2.10 2.07 2.05 1.99
0.33 0.28 0.20 0.16 0.18 0.19 0.11 0.13 0.14 0.14 0.17 0.19 0.19 0.23 0.29 0.37 0.39 0.42 0.45 0.42 0.45 0.55 0.66 0.67 0.74 0.79 0.80 0.86 0.94 1.02 1.07 1.15 1.39 1.52 1.58 1.61 1.67 1.74 1.85 1.96 1.95 1.87 1.83 1.80
0.41 0.46 0.40 0.28 0.25 0.26 0.25 0.23 0.23 0.27 0.34 0.29 0.32 0.38 0.40 0.41 0.42 0.44 0.48 0.61 0.59 0.56 0.62 0.67 0.76 0.78 0.82 0.86 0.92 0.93 0.99 1.09 1.22 1.31 1.39 1.41 1.51 1.61 1.69 1.74 1.76 1.78 1.73 1.57
0.32 0.35 0.40 0.41 0.40 0.39 0.39 0.42 0.33 0.35 0.59 0.58 0.55 0.53 0.49 0.53 0.64 0.59 0.47 0.49 0.53 0.54 0.56 0.65 0.77 0.79 0.82 0.87 0.90 0.92 1.00 1.12 1.25 1.39 1.49 1.56 1.61 1.68 1.65 1.67 1.69 1.64 1.56 1.46
0.44 0.46 0.44 0.44 0.48 0.51 0.46 0.40 0.39 0.65 0.88 0.86 0.88 0.83 0.68 0.70 0.69 0.60 0.48 0.46 0.49 0.55 0.59 0.64 0.76 0.88 0.89 0.92 0.99 1.07 1.12 1.19 1.27 1.37 1.47 1.51 1.53 1.56 1.58 1.62 1.56 1.53 1.52 1.47
0.61 0.62 0.60 0.63 0.79 0.93 0.69 0.58 0.77 0.92 0.70 0.72 0.86 1.02 1.01 0.93 0.74 0.60 0.50 0.46 0.45 0.44 0.49 0.64 0.75 0.86 0.95 1.05 1.16 1.22 1.19 1.20 1.29 1.42 1.51 1.49 1.50 1.48 1.46 1.44 1.38 1.37 1.36 1.31
0.69 0.77 0.87 0.92 1.06 0.98 0.79 0.79 0.76 0.85 0.96 0.98 1.06 1.18 1.16 1.04 0.82 0.67 0.58 0.53 0.48 0.46 0.49 0.56 0.67 0.82 0.91 1.05 1.19 1.28 1.33 1.40 1.43 1.50 1.60 1.63 1.60 1.55 1.55 1.56 1.53 1.46 1.44 1.40
0.71 0.59 0.79 1.08 1.22 1.05 0.87 0.87 0.88 0.96 1.11 1.15 1.08 1.06 1.00 0.93 0.83 0.79 0.75 0.67 0.65 0.63 0.63 0.68 0.76 0.83 0.90 0.99 1.10 1.22 1.32 1.41 1.53 1.57 1.60 1.64 1.64 1.63 1.62 1.64 1.61 1.55 1.49 1.41
0.76 0.80 0.95 1.26 1.43 1.35 1.20 1.11 1.05 1.06 1.03 1.11 1.03 1.03 0.97 0.87 0.83 0.83 0.89 0.92 0.87 0.82 0.81 0.84 0.89 0.91 0.95 1.01 1.10 1.23 1.33 1.40 1.49 1.58 1.61 1.58 1.56 1.56 1.55 1.53 1.49 1.40 1.33 1.28
0.84 0.99 1.24 1.57 1.57 1.67 1.57 1.28 1.12 1.18 1.14 1.10 1.03 1.05 1.07 0.99 0.91 0.92 0.99 1.02 0.99 0.93 0.89 0.88 0.91 0.92 0.94 1.00 1.11 1.18 1.33 1.49 1.56 1.54 1.45 1.38 1.30 1.28 1.28 1.26 1.28 1.32 1.18 1.18